TITAN 3C TRANSTAGE R/B, 2222

Orbit data source: Space-Track

TITAN 3C TRANSTAGE R/B, 2222 is space debris in GEO originally from a launch on Thu, 16 Jun 1966 UTC launched from the Air Force Eastern Test Range (AFETR). Debris objects in space refer to the collection of defunct objects orbiting the Earth. Examples of debris include non-operational satellites, rocket bodies, and fragments generated from explosions, collisions, or faulty payload assembly.

Loading next visibility...
Identifier
2222, 1966-053J
Orbit
GEO
Country
Flag of USUS
Related business
Manufacturer
Martin Marietta
Mission
Spacecraft
Bus & Motor
TRANSTAGE, Unknown motor
Mass
2,050 kg wet, 2,050 kg dry
Launch date (UTC)
1966-06-16 (59 years ago)
Launch vehicle
Unknown
Launch site
Air Force Eastern Test Range (AFETR)
Object type
Payload
Rocket body
Debris
Shape & HBR
Cyl + 2 Nozzle, 2.3 m
Radar Cross Section
14.974 m², Large (>1 m²)

Expand to show TLE details & history
Last TLE update: 18 hours ago

TLE from 18 hours ago
0 TITAN 3C TRANSTAGE R/B
1 02222U 66053J   25258.00322491 -.00000209  00000-0  00000-0 0  9993
2 02222   7.8641  50.4961 0164173 162.7375  43.4059  1.06722392127449
Epoch: 2025-09-15T00:04Z
TLE epoch observation values (Epoch: 2025-09-15T00:04:38.632Z)
Latitude
-3.60587°
Longitude
-97.6446°
Altitude
33,594.358 km
Speed
3.176 km/s
True Right ascension
17h 10m 55s
True Declination
-3° 36' 07"
Sunlit
Object was in daylight at epoch
Visualization orbit readout
Latitude
Unknown
Longitude
Unknown
Altitude
Unknown
Speed
Unknown
Apparent Right ascension
Unknown
Apparent Declination
Unknown
Sunlit
N/A
Visualization observer readout
Local Sidereal Time
11:09:15
Azimuth
Unknown
Elevation
Unknown
Doppler factor
Unknown
Orbital elements
Apogee altitude
34,735.114 km
Perigee altitude
33,406.981 km
Semi-major axis
40,449.185 km
Eccentricity
0.01642
Inclination
7.8641°
RAAN
50.4961°
Arg. of periapsis
162.7375°
True anomaly
44.71809°
Mean anomaly
43.4059°
Eccentric anomaly
44.06003°
Mean motion
0.2668 °/min
Orbital period
1,349.35 mins
BSTAR
0
Loading maneuver chart data...
Computing Atmospheric mass density...
Loading historical data...
Loading historical data...
Loading historical data...
Loading historical data...
Loading historical data...
Loading historical data...
Loading historical data...

Documentation

Showing up to 5 results
|